Satellite: CO-66
Catalog number: 32791
Epoch time:      09078.17628724
Element set:     300
Inclination:      097.9557 deg
RA of node:       142.7576 deg
Eccentricity:    0.0015506
Arg of perigee:   327.1718 deg
Mean anomaly:     032.8528 deg
Mean motion:   14.81400818 rev/day
Decay rate:       1.03e-06 rev/day^2
Epoch rev:            4808
Checksum:              315

Satellite: RS-30
Catalog number: 32953
Epoch time:      09077.71937032
Element set:    0259
Inclination:      082.5033 deg
RA of node:       312.8830 deg
Eccentricity:    0.0019818
Arg of perigee:   018.3547 deg
Mean anomaly:     341.8244 deg
Mean motion:   12.43000083 rev/day
Decay rate:        1.0e-07 rev/day^2
Epoch rev:           03715
Checksum:              272

/EX





More information about the Keps mailing list